[[{"header":{"parameterUnit":"m.s-1","parameterCategory":1,"la1":30.2991,"la2":30.254,"lo1":-89.0895,"lo2":-89.0444,"dy":0.0017,"dx":0.0017,"nx":28,"ny":28,"refTime":"2025-07-16T21:00:00:Z","depth":0,"parameterNumber":2,"parameterNumberName":"U-component_of_WINDS"},"data":[0,0,0,0,0,0,0,0,0,0,0,0,0,0,0,0,0,0,0,0,0,0,0,0,0,0,0,0,0,0,0,0,0,0,0,0,0,0,0,0,0,0,0,0,0,0,0,0,0,0,0,0,0,0,0,0,0,0,2.9035,2.9035,0,2.904,2.9041,2.9041,2.8988,2.8986,2.8985,2.8983,2.8988,2.8989,2.8991,0,0,0,0,0,0,0,0,0,0,0,0,0,2.8978,2.8979,2.9035,2.9035,2.9035,2.904,2.9041,2.9041,2.8988,2.8986,2.8984,2.8983,2.8987,2.8989,2.8991,0,0,0,0,0,0,0,0,0,0,0,0,0,2.8995,2.8979,2.9035,2.901,2.9008,2.904,2.9041,2.9041,2.8988,2.8986,2.8984,2.8982,2.8987,2.8989,2.8991,2.9048,0,0,2.8998,2.8999,0,0,0,0,0,0,0,0,2.8994,2.8997,2.9013,2.9012,2.9009,2.9011,2.9022,2.9043,2.8989,2.8996,2.8983,2.8981,2.8997,2.8998,2.9004,2.9048,2.9049,2.8998,2.8999,2.9,2.9001,0,0,0,0,0,0,0,2.8993,2.8996,2.9037,2.9014,2.9011,2.8997,2.8997,2.9026,2.9009,2.8995,2.8991,2.8992,2.8996,2.9002,2.9004,2.9049,2.8998,2.9,2.9001,2.9002,2.9138,2.914,0,0,0,0,0,0,2.8995,2.8996,2.9037,2.9037,2.8996,2.9,2.9,2.9013,2.9008,2.9005,2.8994,2.899,2.8999,2.9001,2.9004,2.9069,2.9,2.9002,2.9003,2.9136,2.9139,2.9141,0,0,0,0,0,0,2.8994,2.8999,2.9037,2.9016,2.9019,2.9004,2.9018,2.9014,2.902,2.9008,2.9004,2.9004,2.8998,2.9001,2.9037,2.9068,2.9003,2.9005,2.9133,2.9137,2.914,2.92,0,0,0,0,0,0,2.8993,2.8999,2.9021,2.9016,2.9021,2.9071,2.902,2.9016,2.9025,2.9019,2.9016,2.9013,2.8996,2.9034,2.9039,2.907,2.9007,2.913,2.9135,2.9139,2.9195,2.9205,2.9214,0,0,0,0,0,2.8991,2.9038,2.9023,2.9028,2.9048,2.9073,2.9075,2.9055,2.9027,2.9049,2.904,2.9014,2.9065,2.9038,2.9044,2.9075,2.9128,2.9133,2.9138,2.9191,2.9203,2.9213,0,0,0,0,0,0,2.9047,2.9037,2.902,2.9067,2.9071,2.9064,2.909,2.9068,2.908,2.9074,2.9048,2.9048,2.9088,2.9086,2.9057,2.913,2.9091,2.9098,2.9129,2.9141,2.915,2.9149,2.9009,0,0,0,0,0,2.9065,2.9087,2.9077,2.9119,2.9122,2.9106,2.9116,2.91,2.9103,2.9104,2.9099,2.9102,2.9118,2.913,2.9145,2.9195,2.9193,2.922,2.9229,2.9237,2.9242,2.9266,2.9278,2.9158,2.9158,2.9158,0,0,2.9102,2.91,2.9115,2.9131,2.9132,2.9153,2.9108,2.9133,2.9149,2.9108,2.9141,2.9138,2.914,2.9183,2.9202,2.9182,2.9275,2.9243,2.9249,2.925,2.9273,2.9284,2.9294,2.9161,2.9161,2.916,0,0,2.918,2.9182,2.9216,2.9218,2.9221,2.921,2.9218,2.9214,2.921,2.9243,2.9212,2.9231,2.926,2.9262,2.9267,2.9346,2.9321,2.9352,2.9399,2.9424,2.9433,2.9441,2.9467,2.9477,2.9358,2.9358,2.9358,0,2.9226,2.9258,2.9237,2.9264,2.9271,2.9236,2.927,2.9273,2.928,2.9285,2.9264,2.9299,2.9298,2.934,2.9359,2.9366,2.9373,2.9351,2.9433,2.9441,2.9449,2.9473,2.9483,2.9361,2.9361,2.9361,2.936,0,2.9313,2.9336,2.9363,2.9371,2.9381,2.9412,2.9394,2.9408,2.9391,2.9382,2.9416,2.9413,2.9426,2.9436,2.942,2.9475,2.9463,2.9438,2.9398,2.9464,2.9486,2.9496,2.9366,2.9365,2.9364,2.9363,0,0,2.9425,2.9421,2.9431,2.9433,2.9433,2.945,2.9479,2.9491,2.9502,2.9509,2.953,2.9556,2.9533,2.9539,2.9523,2.9545,2.9605,2.9516,2.9516,2.9531,2.9664,2.9681,2.9692,2.9589,2.9591,2.9592,2.9663,0,2.95,2.9548,2.9529,2.9579,2.9599,2.9565,2.959,2.9592,2.9585,2.96,2.9592,2.9609,2.9578,2.9581,2.9602,2.9593,2.963,2.9588,2.9608,2.9609,2.9606,2.9704,2.9722,2.9789,2.9672,2.9673,2.9674,0,2.9593,2.9602,2.9653,2.9649,2.9656,2.9679,2.9688,2.9704,2.9705,2.9698,2.9705,2.9684,2.9711,2.9673,2.9709,2.968,2.9688,2.9685,2.9687,2.9686,2.9644,2.9704,2.981,2.9819,2.9688,2.9687,2.9686,0,2.9666,2.9692,2.9726,2.9729,2.9725,2.9741,2.9741,2.974,2.9749,2.9757,2.9762,2.9774,2.9779,2.9789,2.9771,2.9746,2.9809,2.977,2.9802,2.9803,2.9815,2.9814,2.9922,2.9824,2.9824,2.9824,2.9824,0,2.975,2.9782,2.9759,2.9779,2.9814,2.9792,2.9827,2.9822,2.9822,2.9841,2.9814,2.9831,2.9808,2.9824,2.9811,2.9841,2.9844,2.9838,2.9834,2.9839,2.984,2.9842,2.9836,2.9826,2.9826,2.9825,2.9825,0,2.9837,2.9823,2.9857,2.9851,2.985,2.9875,2.9869,2.9887,2.9878,2.9902,2.9906,2.9892,2.9908,2.9892,2.9908,2.9899,2.9939,2.993,2.9939,2.9935,2.9967,2.9963,3.0078,3.0091,2.9987,2.9988,2.9989,0,2.989,2.9914,2.991,2.992,2.992,2.9938,2.9946,2.9926,2.9936,2.9939,2.9957,2.9971,2.9981,3.0009,3.0,3.0011,3.0,3.0039,3.0001,3.0006,2.9998,2.9996,2.9997,3.0046,3.0048,3.0049,3.0049,0,2.9984,2.9976,2.9989,3.0,3.001,3.0018,3.0023,3.0033,3.0012,3.0025,3.0041,3.0049,3.0065,3.0079,3.0088,3.0086,3.0064,3.0062,3.0069,3.0074,3.0077,3.0073,2.9957,3.0059,3.0058,3.0057,3.0056,3.0056,3.0054,3.0073,3.0073,3.0088,3.009,3.0095,3.0111,3.0104,3.0118,3.0129,3.0117,3.0137,3.0137,3.0146,3.0148,3.0162,3.0146,3.0157,3.016,3.0162,3.0166,3.0077,3.0164,3.0164,3.0164,3.0164,3.0163,0,3.0145,3.0143,3.0158,3.0165,3.0177,3.0156,3.0161,3.0172,3.019,3.0192,3.0202,3.0221,3.0234,3.0226,3.0238,3.0251,3.0241,3.0254,3.0252,3.0252,3.0181,3.0172,3.0262,3.0262,3.0262,3.0262,3.0262,3.0262,3.0193,3.0223,3.0215,3.0246,3.0244,3.0263,3.0267,3.0272,3.0273,3.0295,3.0306,3.0301,3.0299,3.031,3.0321,3.0318,3.0322,3.0339,3.0333,3.0267,3.0257,3.0247,3.0239,3.0341,3.0341,3.0401,3.0402,3.0402]},{"header":{"parameterUnit":"m.s-1","parameterCategory":1,"la1":30.2991,"la2":30.254,"lo1":-89.0895,"lo2":-89.0444,"dy":0.0017,"dx":0.0017,"nx":28,"ny":28,"refTime":"2025-07-16T21:00:00:Z","depth":0,"parameterNumber":3,"parameterNumberName":"V-component_of_WINDS"},"data":[0,0,0,0,0,0,0,0,0,0,0,0,0,0,0,0,0,0,0,0,0,0,0,0,0,0,0,0,0,0,0,0,0,0,0,0,0,0,0,0,0,0,0,0,0,0,0,0,0,0,0,0,0,0,0,0,0,0,6.8749,6.875,0,6.8845,6.8846,6.8847,6.8847,6.8846,6.8845,6.8844,6.8932,6.8935,6.8939,0,0,0,0,0,0,0,0,0,0,0,0,0,6.8554,6.8558,6.8749,6.875,6.8751,6.8845,6.8846,6.8847,6.8847,6.8846,6.8844,6.8843,6.8931,6.8935,6.8939,0,0,0,0,0,0,0,0,0,0,0,0,0,6.8643,6.8559,6.8749,6.8763,6.8765,6.8845,6.8846,6.8848,6.8848,6.8846,6.8844,6.8842,6.8929,6.8934,6.894,6.9009,0,0,6.8956,6.8958,0,0,0,0,0,0,0,0,6.8638,6.865,6.8759,6.8762,6.8765,6.8833,6.881,6.8901,6.8848,6.8816,6.8844,6.8841,6.89,6.8907,6.8929,6.9013,6.9016,6.8956,6.8959,6.8962,6.8963,0,0,0,0,0,0,0,6.8632,6.8646,6.8787,6.8761,6.8764,6.8761,6.8771,6.8827,6.8866,6.8819,6.8819,6.8831,6.8901,6.8924,6.8931,6.9018,6.8956,6.8961,6.8964,6.8966,6.9162,6.9164,0,0,0,0,0,0,6.8625,6.8641,6.8783,6.8789,6.8696,6.8766,6.8778,6.8812,6.8866,6.8873,6.8832,6.883,6.8916,6.8925,6.8934,6.9018,6.8961,6.8966,6.8969,6.916,6.9162,6.9165,0,0,0,0,0,0,6.862,6.8637,6.878,6.8716,6.8733,6.8771,6.881,6.8815,6.8839,6.8877,6.8882,6.885,6.8915,6.8927,6.8991,6.9021,6.8969,6.8974,6.9157,6.9161,6.9163,6.9187,0,0,0,0,0,0,6.8615,6.8636,6.8665,6.8716,6.8737,6.8838,6.8812,6.8818,6.8849,6.8847,6.8894,6.89,6.8914,6.8983,6.8996,6.9027,6.8978,6.9155,6.9159,6.9162,6.9184,6.919,6.9196,0,0,0,0,0,6.8608,6.8665,6.8666,6.8683,6.8775,6.8839,6.8851,6.8869,6.8851,6.8879,6.8903,6.8899,6.9016,6.8989,6.9004,6.9038,6.9153,6.9158,6.9162,6.9181,6.9189,6.9196,0,0,0,0,0,0,6.8613,6.8672,6.8674,6.8751,6.8791,6.8839,6.8875,6.8877,6.892,6.8916,6.8933,6.8944,6.9008,6.9029,6.8998,6.9107,6.9082,6.909,6.9091,6.9099,6.9105,6.9099,6.8982,0,0,0,0,0,6.8623,6.8675,6.8722,6.8785,6.8806,6.8837,6.8866,6.8877,6.8917,6.8933,6.8962,6.8998,6.9043,6.9072,6.9116,6.9187,6.9196,6.9217,6.9223,6.9228,6.9234,6.9273,6.9282,6.918,6.918,6.918,0,0,6.8644,6.8683,6.8714,6.8787,6.8819,6.8869,6.8851,6.8904,6.894,6.8939,6.9003,6.9025,6.9067,6.9135,6.9166,6.9154,6.9265,6.9234,6.9238,6.9242,6.9279,6.9288,6.9297,6.9183,6.9182,6.9182,0,0,6.8709,6.8744,6.8801,6.8834,6.8884,6.8905,6.8918,6.8967,6.8983,6.9048,6.9048,6.9089,6.9167,6.9197,6.9222,6.9298,6.9294,6.9311,6.9344,6.9381,6.9389,6.9397,6.9423,6.9432,6.9317,6.9317,6.9317,0,6.8728,6.8806,6.8828,6.8883,6.8914,6.8919,6.8975,6.9004,6.9064,6.9084,6.9071,6.9169,6.9197,6.9272,6.9291,6.9311,6.9325,6.9306,6.9387,6.9394,6.9401,6.9427,6.9437,6.9319,6.9319,6.9319,6.9318,0,6.8827,6.8881,6.892,6.8982,6.9017,6.9072,6.9099,6.9131,6.9139,6.916,6.9224,6.9258,6.9309,6.9327,6.9334,6.9403,6.9394,6.9384,6.9359,6.9413,6.9437,6.9447,6.9321,6.9321,6.932,6.932,0,0,6.8896,6.8972,6.8985,6.9014,6.9069,6.911,6.9163,6.9216,6.9243,6.9284,6.9328,6.9393,6.9385,6.9413,6.9423,6.9456,6.9513,6.9441,6.9442,6.9453,6.959,6.9597,6.9608,6.9511,6.9513,6.9515,6.9586,0,6.8966,6.9066,6.9087,6.9172,6.9221,6.9226,6.9273,6.931,6.9331,6.9373,6.9394,6.9441,6.9426,6.9443,6.9476,6.9499,6.954,6.9494,6.955,6.9551,6.9539,6.9621,6.9629,6.9695,6.9596,6.9598,6.9599,0,6.9062,6.9109,6.92,6.9249,6.927,6.9312,6.9362,6.9403,6.9445,6.9457,6.949,6.9496,6.9549,6.9522,6.9594,6.9562,6.9586,6.96,6.9603,6.9608,6.9578,6.9628,6.9717,6.9726,6.9614,6.9613,6.9611,0,6.9103,6.9189,6.9254,6.9278,6.9338,6.9367,6.9392,6.9432,6.9463,6.9505,6.9525,6.9571,6.9596,6.9631,6.9649,6.9628,6.9719,6.9694,6.9729,6.9728,6.9747,6.9746,6.9841,6.9763,6.9763,6.9763,6.9763,0,6.9179,6.9234,6.9274,6.9314,6.9375,6.9397,6.9456,6.948,6.9516,6.9558,6.9564,6.9603,6.9625,6.9666,6.9679,6.9736,6.9747,6.9757,6.976,6.9757,6.9756,6.9772,6.9768,6.9766,6.9765,6.9764,6.9764,0,6.9236,6.9265,6.9337,6.9388,6.9402,6.9445,6.9487,6.9524,6.9545,6.9599,6.9613,6.9645,6.9694,6.9715,6.9774,6.9783,6.9848,6.9848,6.9836,6.9837,6.9871,6.9867,6.9979,6.9995,6.9907,6.9908,6.9909,0,6.9282,6.9325,6.9382,6.9413,6.9441,6.949,6.9522,6.9544,6.9576,6.9627,6.9658,6.9708,6.975,6.9827,6.9853,6.9899,6.9899,6.9935,6.9906,6.9901,6.9899,6.9897,6.99,6.994,6.9941,6.9942,6.9942,0,6.9362,6.9375,6.9423,6.9476,6.9515,6.9557,6.9597,6.9621,6.9649,6.9685,6.9737,6.9769,6.9832,6.988,6.9928,6.995,6.995,6.9952,6.9962,6.9959,6.995,6.9955,6.985,6.9949,6.9948,6.9948,6.9947,6.9947,6.9415,6.9453,6.95,6.9553,6.9587,6.9625,6.9663,6.969,6.9735,6.979,6.9799,6.9854,6.9893,6.9957,6.9982,7.0023,7.0014,7.0029,7.0033,7.0036,7.0038,6.9944,7.0031,7.0031,7.0031,7.0031,7.0031,0,6.9494,6.9525,6.9574,6.9632,6.9673,6.9674,6.9719,6.9752,6.9802,6.984,6.9881,6.994,6.9988,7.0019,7.0066,7.0093,7.0095,7.0105,7.0103,7.0108,7.0044,7.003,7.0103,7.0103,7.0103,7.0103,7.0103,7.0103,6.9541,6.9606,6.9624,6.9705,6.9734,6.9792,6.9817,6.9851,6.9882,6.9949,6.999,7.0011,7.0045,7.0096,7.0138,7.0146,7.0163,7.0174,7.018,7.012,7.0112,7.0105,7.0092,7.0177,7.0177,7.0241,7.0241,7.0242]}]]